Home   Weather   Fairfield Heights   Past weeks
Flag for USA

Past Weather in Fairfield Heights, Pennsylvania, USA — Yesterday and Last 2 Weeks

Now
27 °F

Mostly cloudy.


Feels Like: 15 °F
Forecast: 28 / 21 °F
Wind: 16 mph from West

Location: Du Bois-Jefferson County Airport

Current Time: Dec 10, 2019 at 9:53:06 pm

Latest Report: Dec 10, 2019 at 9:15 pm


Visibility: 10 mi

Pressure: 30.11 "Hg

Humidity: 78%

Dew Point: 21 °F

Location of Fairfield HeightsLocation

Past Weather in Fairfield Heights — Graph

°F

Fairfield Heights Temperature Yesterday

Maximum temperature yesterday: 53 °F (at 9:53 pm)
Minimum temperature yesterday: 34 °F (at 6:53 am)
Average temperature yesterday: 42 °F

High & Low Weather Summary for the Past Weeks

 TemperatureHumidityPressure
High59 °F (Nov 27, 1:53 pm)100% (Dec 1, 8:02 pm)30.43 "Hg (Dec 1, 8:02 pm)
Low21 °F (Dec 8, 12:53 am)45% (Nov 30, 2:53 pm)29.42 "Hg (Dec 4, 1:06 pm)
Average34 °F78%29.89 "Hg
* Reported Nov 25 8:53 pm — Dec 10 8:09 pm, Fairfield Heights. Weather by CustomWeather, © 2019

Note: Actual official high and low records may vary slightly from our data, if they occured in-between our weather recording intervals... More about our weather records

Fairfield Heights Weather History for the Previous 24 Hours

Scroll right to see more
 ConditionsComfort  
Time TempWeatherWind HumidityBarometerVisibility
8:09 pm
Tue, Dec 10
27 °FOvercast.13 mph78%30.08 "Hg10 mi
7:53 pm28 °FOvercast.15 mph75%30.11 "Hg10 mi
6:53 pm28 °FOvercast.15 mph75%30.08 "Hg10 mi
5:53 pm29 °FMostly cloudy.14 mph72%30.03 "Hg10 mi
5:27 pm29 °FMostly cloudy.15 mph72%30.00 "Hg10 mi
5:16 pm29 °FMostly cloudy.13 mph72%29.99 "Hg10 mi
4:53 pm30 °FMostly cloudy.14 mph72%30.03 "Hg10 mi
3:53 pm32 °FOvercast.14 mph73%29.98 "Hg10 mi
3:35 pm32 °FMostly cloudy.13 mph69%29.89 "Hg10 mi
2:53 pm33 °FOvercast.16 mph66%29.93 "Hg10 mi
2:16 pm34 °FMostly cloudy.15 mph73%29.88 "Hg10 mi
1:53 pm36 °FBroken clouds.20 mph70%29.88 "Hg10 mi
12:53 pm37 °FMostly cloudy.15 mph76%29.85 "Hg10 mi
11:53 am37 °FBroken clouds.12 mph79%29.86 "Hg10 mi
10:53 am40 °FOvercast.15 mph83%29.85 "Hg10 mi
10:27 am41 °FMostly cloudy.17 mph86%29.83 "Hg10 mi
9:53 am44 °FLight rain. Overcast.15 mph85%29.78 "Hg8 mi
8:53 am47 °FMostly cloudy.16 mph80%29.74 "Hg10 mi
8:18 am47 °FMostly cloudy.16 mph80%29.73 "Hg10 mi
7:53 am47 °FMostly cloudy.8 mph83%29.73 "Hg10 mi
6:53 am47 °FOvercast.12 mph83%29.71 "Hg10 mi
5:53 am49 °FMostly cloudy.21 mph80%29.69 "Hg10 mi
5:31 am49 °FMostly cloudy.17 mph86%29.67 "Hg10 mi
4:53 am50 °FMostly cloudy.13 mph86%29.67 "Hg10 mi
4:33 am50 °FOvercast.14 mph86%29.66 "Hg10 mi
3:53 am50 °FLight rain. Fog.12 mph93%29.67 "Hg5 mi
3:28 am51 °FLight rain. Fog.15 mph89%29.65 "Hg5 mi
3:21 am51 °FOvercast.18 mph89%29.65 "Hg8 mi
2:53 am52 °FLight rain. Fog.12 mph93%29.64 "Hg3 mi
2:26 am53 °FMostly cloudy.18 mph89%29.61 "Hg10 mi
1:53 am53 °FOvercast.15 mph89%29.62 "Hg10 mi
1:13 am53 °FMostly cloudy.16 mph89%29.60 "Hg10 mi
12:53 am53 °FMostly cloudy.15 mph89%29.61 "Hg10 mi
11:53 pm
Mon, Dec 9
53 °FLight rain. Fog.21 mph93%29.60 "Hg6 mi
10:53 pm53 °FMostly cloudy.20 mph93%29.58 "Hg9 mi
10:25 pm53 °FOvercast.18 mph93%29.57 "Hg9 mi
9:53 pm53 °FMostly cloudy.23 mph89%29.59 "Hg10 mi
Weather by CustomWeather, © 2019

See weather overview

Advertising